Regional Weather Roundup
Issued by NWS Glasgow, MT

Home | Current Version | Previous Version | Text Only | Print | Product List | Glossary On
Versions: 1 2 3 4 5 6 7 8 9 10 11 12 13 14 15 16 17 18 19 20 21 22 23 24 25 26 27 28
000
ASUS45 KGGW 301115
RWRGGW
HOURLY REGIONAL WEATHER ROUNDUP FOR NORTHEAST MONTANA
NATIONAL WEATHER SERVICE GLASGOW MONTANA
500 AM MDT SAT APR 30 2016

NOTE: "FAIR" INDICATES FEW OR NO CLOUDS BELOW 12,000 FEET WITH NO
SIGNIFICANT WEATHER AND/OR OBSTRUCTIONS TO VISISBILITY.

NORTHEAST MONTANA


CITY           SKY/WX    TMP DP  RH WIND       PRES   REMARKS
GLASGOW        CLOUDY    43  32  65 E12       30.16R
PLENTYWOOD       N/A     37  28  70 NE8         N/A
WOLF POINT     CLEAR     38  31  76 E7        30.19R
JORDAN           N/A     40  36  86 E3        30.14R
WINNETT          N/A     41  36  82 E3          N/A
SIDNEY         CLOUDY    39  28  65 N6        30.20R
GLENDIVE       CLOUDY    39  32  75 NE9       30.18R
MALTA            N/A     45  40  82 NE3         N/A
SCOBEY           N/A     37  20  50 CALM      30.18R
OPHEIM           N/A     39  27  60 CALM      30.08R

FORT PECK REPORTS


CITY           SKY/WX    TMP DP  RH WIND       PRES   REMARKS
FORT PECK        N/A     42  33  70 E12         N/A
THE PINES        N/A     44  37  76 NE3         N/A

SOUTHEAST MONTANA


CITY           SKY/WX    TMP DP  RH WIND       PRES   REMARKS
BILLINGS       CLOUDY    41  36  82 NE7       30.07R
MILES CITY     CLOUDY    44  37  76 NE7       30.12R
BAKER          CLOUDY    40  33  76 NE6       30.13R
LIVINGSTON     CLOUDY    39  32  76 E9        30.05R

CENTRAL MONTANA


CITY           SKY/WX    TMP DP  RH WIND       PRES   REMARKS
HAVRE          CLOUDY    41  37  86 E14       30.13R
LEWISTOWN      CLOUDY    40  35  83 E10       30.10R
GREAT FALLS    CLOUDY    36  34  92 W5        30.08R
CUT BANK       MOCLDY    32  31  96 NW7       30.13R
HELENA         CLOUDY    43  34  70 W6        30.06R
BUTTE          CLOUDY    36  34  92 NW5       30.05R
BOZEMAN        PTCLDY    36  31  82 E3        30.05R

WESTERN MONTANA


CITY           SKY/WX    TMP DP  RH WIND       PRES   REMARKS
MISSOULA       LGT RAIN  42  37  82 NW5       30.11R
KALISPELL      NOT AVBL

NORTH DAKOTA


CITY           SKY/WX    TMP DP  RH WIND       PRES   REMARKS
WILLISTON      CLEAR     38  29  70 VRB3      30.22R
DICKINSON      PTCLDY    34  27  75 E9        30.13R
MINOT          CLEAR     39  26  59 CALM      30.24R
BISMARCK       CLEAR     39  32  76 NE10      30.16R

SOUTHERN SASKATCHEWAN


CITY           SKY/WX    TMP DP  RH WIND       PRES   REMARKS
REGINA         CLEAR     37  23  56 SE12      30.28R
ESTEVAN        CLEAR     28  23  80 NE7       30.26R
SWIFT CURRENT  MOCLDY    36  30  80 SE8       30.20R





USA.gov is the U.S. government's official web portal to all federal, state and local government web resources and services.